Location: Newark
(35.1686°N, 108.2815°E)
Time: 05:22:09
(UTC+00:00)

Hubble Space Telescope - Pass Details

Date: 13 April 2020
Orbit: 536 x 540 km, 28.5° (Epoch: 28 May)

Event Time Altitude Azimuth Distance (km) Brightness Sun altitude
Rises 13:30:56 0° 260° (W) 2,668 5.0 -25.8°
Reaches altitude 10° 13:33:46 10° 240° (WSW) 1,776 3.7 -26.2°
Enters shadow 13:34:38 13° 230° (SW) 1,570 3.3 -26.4°
